Back to catalog

DELTA 1 DEB

LostSSO
NORAD 20051·DEBRIS·🇺🇸 United States

Launched Jul 29, 1976 from Vandenberg Space Force Base

Loading…

Next Passes (next 24 hours)

TLE

StaleSource: Space-Track

Epoch: Jun 1, 2026, 08:56 UTC

1 20051U 76077FN  26152.37280782 -.00000008  00000-0  35113-3 0  9993
2 20051 102.5492 107.4693 0154957  58.9010  91.5359 12.14755417615930

Track DELTA 1 DEB in real time with AllMySat

Download on the App Store